Location: Bowman Observatory
(41.0326°N, 73.6210°W)
Time: 05:09:27
(UTC-05:00)

Cosmos 2297 - Visible Passes

Search period start: 14 February 2016 00:00
Search period end: 24 February 2016 00:00
Orbit: 836 x 859 km, 71.0° (Epoch: 13 February)

Date Brightness Start Highest point End Pass type
(mag) Time Alt. Az. Time Alt. Az. Time Alt. Az.
16 Feb 4.6 06:17:09 10° S 06:22:44 57° ESE 06:28:19 10° NNE visible
17 Feb 4.6 06:03:50 10° S 06:09:25 56° ESE 06:14:59 10° NNE visible
18 Feb 4.6 05:50:32 10° S 05:56:06 55° ESE 06:01:39 10° NNE visible
19 Feb 4.6 05:37:14 10° S 05:42:46 54° ESE 05:48:19 10° NNE visible
20 Feb 4.6 05:23:55 10° S 05:29:27 52° ESE 05:34:59 10° NNE visible
21 Feb 4.6 05:10:37 10° S 05:16:07 51° ESE 05:21:38 10° NNE visible
22 Feb 4.6 04:57:19 10° S 05:02:49 50° ESE 05:08:18 10° NE visible
23 Feb 4.6 04:44:01 10° S 04:49:28 49° ESE 04:54:57 10° NE visible
